Regional Weather Roundup
Issued by NWS

Home | Current Version | Previous Version | Text Only | Print | Product List | Glossary On
Versions: 1 2 3 4 5 6 7 8 9 10 11 12 13 14 15 16 17 18 19 20 21 22 23 24 25 26 27 28 29 30 31 32 33 34 35 36 37 38 39 40 41 42 43 44 45 46 47 48 49 50
000
ASUS43 KMPX 251701
RWRMN
WEATHER ROUNDUP FOR MINNESOTA
NATIONAL WEATHER SERVICE TWIN CITIES/CHANHASSEN MN
1200 PM CDT SAT MAR 25 2017


NOTE: "FAIR" INDICATES FEW OR NO CLOUDS BELOW 12,000 FEET WITH NO
SIGNIFICANT WEATHER AND/OR OBSTRUCTIONS TO VISIBILITY. N/A MEANS
CURRENT SKY AND/OR WEATHER CONDITIONS ARE NOT AVAILABLE.

MNZ060>063-068>070-251800-
   Twin Cities Metro

CITY           SKY/WX    TMP DP  RH WIND       PRES   REMARKS
TWIN CITIES    CLOUDY    40  31  70 NE14      30.16F
ST PAUL        CLOUDY    40  33  76 NE12      30.18F
CRYSTAL        CLOUDY    39  29  67 NE13      30.16F
BLAINE         CLOUDY    39  36  87 E14       30.18F
LAKEVILLE      CLOUDY    37  34  87 NE15G22   30.13F
EDEN PRAIRIE   CLOUDY    41  32  70 NE13G22   30.13F
SOUTH ST PAUL  CLOUDY    40  32  73 NE10G16   30.15F
LAKE ELMO      CLOUDY    37  34  87 NE14      30.18F
$$
MNZ001>005-007-008-013>017-022>024-027-028-251800-
   Northwest Minnesota

CITY           SKY/WX    TMP DP  RH WIND       PRES   REMARKS
BEMIDJI        CLOUDY    36  28  72 SE16G24   30.19F
HALLOCK        CLOUDY    37  34  87 S20G25    30.14F
ROSEAU         PTSUNNY   39  30  70 S15       30.18S
WARROAD        CLOUDY    37  30  75 SE14G21   30.20S
CROOKSTON      CLOUDY    37  32  81 S20G25    30.17F
FOSSTON        PTSUNNY   37  32  81 SE9G16    30.18S
DETROIT LAKES  SUNNY     37  30  75 SE14      30.16F
MOORHEAD       CLOUDY    34  30  86 S12       30.18F WCI  25
PARK RAPIDS    CLOUDY    38  25  59 E13       30.16F
MAHNOMEN       CLOUDY    37  29  73 SE12      30.17S
$$
MNZ006-009>011-018-025>026-251800-
   North Central Minnesota

CITY           SKY/WX    TMP DP  RH WIND       PRES   REMARKS
BAUDETTE       CLOUDY    38  28  67 SE15G23   30.20F
FLAG ISLAND    CLOUDY    34  30  86 S14       30.19S WCI  24
INTL FALLS     CLOUDY    36  25  64 SE10      30.25S
WASKISH        CLOUDY    39  28  65 SE15G23   30.21S
BIG FORK       CLOUDY    36  27  69 SE13      30.24F
LONGVILLE      CLOUDY    37  27  65 E7        30.20F
GRAND RAPIDS   CLOUDY    35  26  69 SE12G20   30.25F WCI  27
CRANE LAKE     CLOUDY    34  25  69 SE7       30.30F WCI  28
ORR            CLOUDY    32  23  69 SE7G17    30.25F WCI  26
COOK           CLOUDY    34  25  69 SE7       30.27F WCI  28
WALKER         CLOUDY    35  27  73 SE9       30.20F WCI  27
$$
MNZ012-019>021-037-251800-
   Northeast Minnesota

CITY           SKY/WX    TMP DP  RH WIND       PRES   REMARKS
DULUTH         CLOUDY    33  30  88 E20G28    30.24F WCI  21
ELY            CLOUDY    32  25  74 SE12      30.28F WCI  23
HIBBING        CLOUDY    33  26  75 E14       30.25F WCI  23
EVELETH        CLOUDY    35  26  71 E10       30.27S WCI  27
DULUTH HARBOR  CLOUDY    36  32  87 NE24      30.28F
TWO HARBORS    CLOUDY    36  30  80 E16G24    30.26F
SILVER BAY     CLOUDY    34  28  80 NE16G25   30.28F WCI  23
GRAND MARAIS     N/A     33  25  72 NE14G24   30.37F WCI  23
G MARAIS ARPRT MOSUNNY   30  12  47 E12       30.30F WCI  21
$$
MNZ029>031-032-039>041-046>048-054>057-064-251800-
   West Central Minnesota

CITY           SKY/WX    TMP DP  RH WIND       PRES   REMARKS
FERGUS FALLS   CLOUDY    36  28  75 SE12      30.21F
WHEATON        CLOUDY    36  30  80 SE15      30.18F
MORRIS         CLOUDY    36  30  80 E10       30.16F
ALEXANDRIA     CLOUDY    34  30  85 E12       30.18S WCI  25
ELBOW LAKE     CLOUDY    34  30  85 E9        30.17F WCI  26
WADENA         CLOUDY    36  28  75 E12       30.17F
GLENWOOD       CLOUDY    36  30  80 E10       30.18S
APPLETON       CLOUDY    37  30  75 E8        30.17S
BENSON         CLOUDY    39  30  70 SE9       30.19S
ORTONVILLE     CLOUDY    36  30  80 SE8       30.16S
MADISON        CLOUDY    39  36  87 E10       30.16F
WILLMAR        CLOUDY    37  34  87 E12       30.17F
$$
MNZ033>034-036-042>043-049>051-058-059-251800-
   Central Minnesota

CITY           SKY/WX    TMP DP  RH WIND       PRES   REMARKS
ST CLOUD       CLOUDY    36  31  82 E10       30.19S
SAUK CENTRE    CLOUDY    35  30  83 E9        30.18S WCI  28
PAYNESVILLE      N/A     35  31  85 E9        30.18S WCI  28
AITKIN         CLOUDY    39  27  60 E12G17    30.20F
PINE RIVER     CLOUDY    36  28  75 E13       30.23F
BRAINERD       CLOUDY    37  27  67 E14G20    30.20F
STAPLES        CLOUDY    39  27  60 E10       30.18F
LONG PRAIRIE   CLOUDY    34  30  86 NE12      30.19S WCI  25
LITTLE FALLS   CLOUDY    36  30  80 E7        30.20R
LITCHFIELD     CLOUDY    37  34  87 E12       30.17F
BUFFALO        CLOUDY    37  32  79 NE15      30.19F
MAPLE LAKE     CLOUDY    38  33  83 E8        30.19S
HUTCHINSON     CLOUDY    39  35  84 NE16      30.15F
$$
MNZ037-044-045-052-053-251800-
   East Central Minnesota

CITY           SKY/WX    TMP DP  RH WIND       PRES   REMARKS
PRINCETON      CLOUDY    37  30  75 NE7       30.20F
MORA           CLOUDY    36  30  80 E7        30.22F
CAMBRIDGE      CLOUDY    39  28  65 E7        30.18F
RUSH CITY      CLOUDY    38  31  76 E9        30.21F
MOOSE LAKE     CLOUDY    36  28  75 E6        30.21F
CLOQUET        CLOUDY    36  28  75 E14G22    30.23F
MCGREGOR       CLOUDY    36  30  80 E14G20    30.22F
$$
MNZ071>073-080-081-089-090-097-098-251800-
   Southwest Minnesota

CITY           SKY/WX    TMP DP  RH WIND       PRES   REMARKS
MONTEVIDEO     CLOUDY    37  34  87 SE10      30.18S
GRANITE FALLS  CLOUDY    40  35  82 NE14      30.16F
CANBY          CLOUDY    38  35  87 CALM      30.15F
MARSHALL       CLOUDY    38  35  89 E13       30.12F
REDWOOD FALLS  CLOUDY    39  34  82 NE12G20   30.12F
OLIVIA         CLOUDY    39  34  81 NE13      30.13F
PIPESTONE      CLOUDY    37  34  87 E12G20    30.06F
WINDOM         CLOUDY    37  36  93 NE14      30.09S
WORTHINGTON    CLOUDY    36  35  96 NE15      30.08S FOG
JACKSON        CLOUDY    37  34  87 NE16      30.08S
TRACY          CLOUDY    38  37  99 NE15      30.11F FOG
SLAYTON        CLOUDY    34  34  99 NE10G20   30.09F FOG     WCI  26
$$
MNZ065>067-074>077-082>085-091>093-251800-
   South Central Minnesota

CITY           SKY/WX    TMP DP  RH WIND       PRES   REMARKS
MANKATO        CLOUDY    39  35  86 NE17      30.12R
NEW ULM        CLOUDY    39  34  81 NE15      30.11F
ST JAMES       CLOUDY    39  36  87 NE9       30.11F
FAIRMONT       CLOUDY    38  35  89 NE15      30.09R
GLENCOE        CLOUDY    40  36  86 NE7G18    30.13F
FARIBAULT      CLOUDY    37  34  87 NE17      30.14R
OWATONNA       CLOUDY    37  34  87 NE16G23   30.12R
WASECA         CLOUDY    37  34  87 NE18      30.12R
ALBERT LEA     CLOUDY    37  34  87 NE18G26   30.07F
$$
MNZ078>079-086>088-094>096-251800-
   Southeast Minnesota

CITY           SKY/WX    TMP DP  RH WIND       PRES   REMARKS
ROCHESTER      CLOUDY    36  34  92 NE20      30.10R
RED WING       CLOUDY    39  30  70 E13G20    30.14F
STANTON        CLOUDY    39  34  81 NE17      30.13R
DODGE CENTER   CLOUDY    37  34  87 NE18      30.10S
WINONA         CLOUDY    37  34  87 E10       30.14F
AUSTIN         CLOUDY    37  34  87 NE15G26   30.07F
PRESTON        CLOUDY    35  32  90 NE13G18   30.09S WCI  26
$$
ABBREVIATIONS USED IN REMARKS
   TC - TEMPERATURES IN CELSIUS
  WCI - WIND CHILL INDEX
   HX - HEAT INDEX
  VSB - VISIBILITY
$$



USA.gov is the U.S. government's official web portal to all federal, state and local government web resources and services.